Flag for Japan Weather past 2 weeks in Kagoshima, Japan

Now
64 °F

Mild.


Feels Like: 64 °F
Forecast: 62 / 74 °F
Wind: 5 mph from North

Location: Kagoshima

Current Time: Apr 28, 2015 at 8:02:35 PM

Latest Report: Apr 28, 2015 at 7:00 PM


Visibility: N/A

Pressure: 29.94 "Hg

Humidity: 72%

Dew point: 55 °F

Location of KagoshimaLocation

Historic Weather in Kagoshima — Graph

°F

Kagoshima temperature yesterday

Maximum temperature yesterday: 78 °F (at 2:00 PM)
Minimum temperature yesterday: 58 °F (at 6:00 AM)
Average temperature yesterday: 68 °F

Past Weeks' High & Low Weather Summary

 TemperatureHumidityPressure
High80 °F (Apr 25, 2:00 PM)98% (Apr 20, 1:00 AM)30.20 "Hg (Apr 20, 1:00 AM)
Low49 °F (Apr 15, 5:00 AM)25% (Apr 17, 11:00 AM)29.59 "Hg (Apr 20, 5:00 AM)
Average65 °F67%29.98 "Hg
* Reported Apr 13 6:00 PM — Apr 28 6:00 PM, Kagoshima, Weather by CustomWeather, © 2015

Note: Actual official high and low records may vary slightly from our data, if they occured in-between our weather recording intervals... More about our weather records

Advertising

Kagoshima weather history for previous 24 hours

 ConditionsComfort  
Time TempWeatherWind HumidityBarometerVisibility
6:00 PM
Tue, Apr 28
64 °FOvercast.12 mph76%29.94 "Hg9 mi
5:00 PM63 °FMild.8 mph85%29.94 "HgN/A
4:00 PM63 °FMild.5 mph88%29.94 "HgN/A
3:00 PM63 °FLight rain. Overcast.5 mph83%29.95 "Hg6 mi
2:00 PM65 °FMild.3 mph76%29.98 "HgN/A
1:00 PM66 °FMild.3 mph75%29.98 "HgN/A
12:00 PM66 °FLight rain. Overcast.12 mph78%30.01 "Hg16 mi
11:00 AM65 °FMild.7 mph82%30.03 "HgN/A
10:00 AM64 °FMild.6 mph86%30.03 "HgN/A
9:00 AM64 °FLight rain. Overcast.8 mph83%30.03 "Hg9 mi
8:00 AM65 °FMild.6 mph68%30.03 "HgN/A
7:00 AM65 °FMild.1 mph81%30.04 "HgN/A
6:00 AM66 °FLight rain. Overcast.7 mph74%30.01 "Hg9 mi
5:00 AM66 °FMild.6 mph71%30.01 "HgN/A
4:00 AM66 °FMild.9 mph72%30.01 "HgN/A
3:00 AM67 °FOvercast.3 mph71%30.02 "Hg12 mi
2:00 AM67 °FMild.2 mph74%30.02 "HgN/A
1:00 AM67 °FMild.5 mph73%30.04 "HgN/A
12:00 AM67 °FMild.6 mph71%30.05 "HgN/A
11:00 PM
Mon, Apr 27
68 °FMild.6 mph64%30.06 "HgN/A
10:00 PM68 °FMild.7 mph70%30.08 "HgN/A
9:00 PM69 °FPassing clouds.6 mph63%30.08 "Hg12 mi
8:00 PM70 °FMild.7 mph63%30.06 "HgN/A
Weather by CustomWeather, © 2015

See weather overviewHow to use our weather pages